User: anonymous   Login
Location: Unspecified
(0.0000°N, 0.0000°E)
Time: 19:30:20
(UTC+00:00)
Language:

DMSP B5D2-8 - Orbit

View from above orbital plane
View from above orbital plane
View from above satellite
View from above satellite

Ground track
Ground track

The orbit data is extracted from the following two-line orbital elements,

1 23533U 95015A   19083.58132016 -.00000028  00000-0  79013-5 0  9999
2 23533  98.8039  85.8543 0007606 126.9892 343.6073 14.15864109239351
Epoch (UTC): 24 March 2019 13:57:06
Eccentricity: 0.0007606
inclination: 98.8039°
perigee height: 834 km
apogee height: 845 km
right ascension of ascending node: 85.8543°
argument of perigee: 126.9892°
revolutions per day: 14.15864109
mean anomaly at epoch: 343.6073°
orbit number at epoch: 23935

The dashed part of the orbit path shows where the satellite is in the earth's shadow,  

DLR